Location: Unnamed
(42.1164°N, 2.7652°E)
Time: 04:41:00
(UTC+02:00)

ISS - Visible Passes

Search period start: 06 May 2021 00:00
Search period end: 16 May 2021 00:00
Orbit: 418 x 421 km, 51.6° (Epoch: 05 May)

Date Brightness Start Highest point End Pass type
(mag) Time Alt. Az. Time Alt. Az. Time Alt. Az.
06 May -0.5 02:48:19 12° NE 02:48:19 12° NE 02:48:35 10° NE visible
06 May -1.6 04:21:16 18° NW 04:22:24 21° NNW 04:25:05 10° NE visible
06 May -1.0 05:57:51 10° NW 06:00:08 17° N 06:02:25 10° NE visible
07 May -1.6 03:35:21 25° N 03:35:21 25° N 03:37:43 10° NE visible
07 May -1.0 05:10:15 10° NW 05:12:28 16° N 05:14:41 10° NE visible
08 May -0.8 02:49:24 17° NE 02:49:24 17° NE 02:50:23 10° NE visible
08 May -1.0 04:22:31 10° NW 04:24:47 17° N 04:27:03 10° NE visible
08 May -1.2 05:59:49 10° NW 06:02:30 21° NNE 06:05:12 10° ENE visible
09 May -1.2 03:36:22 17° NNW 03:37:07 18° N 03:39:33 10° NE visible
09 May -1.0 05:12:25 10° NW 05:14:52 18° N 05:17:19 10° ENE visible
10 May -1.0 02:50:21 19° N 02:50:21 19° N 02:52:08 10° NE visible
10 May -0.8 04:24:55 10° NW 04:27:12 17° N 04:29:29 10° NE visible
10 May -2.0 06:01:34 10° NW 06:04:44 36° NNE 06:07:53 10° E visible
11 May -0.5 02:04:19 13° NE 02:04:19 13° NE 02:04:46 10° NE visible
11 May -0.8 03:37:19 10° NW 03:39:31 16° N 03:41:44 10° NE visible
11 May -1.5 05:14:14 10° NW 05:17:09 27° NNE 05:20:06 10° E visible
12 May -0.9 02:51:09 16° NNW 02:51:50 16° N 02:54:06 10° NE visible
12 May -1.1 04:26:51 10° NW 04:29:33 21° NNE 04:32:15 10° ENE visible
13 May -0.7 02:04:59 17° N 02:04:59 17° N 02:06:34 10° NE visible
13 May -0.9 03:39:27 10° NW 03:41:54 18° N 03:44:21 10° ENE visible
13 May -2.9 05:15:57 10° NW 05:19:17 53° NNE 05:22:35 10° ESE visible
14 May -0.6 01:18:34 13° NNE 01:18:34 13° NNE 01:19:09 10° NE visible
14 May -0.7 02:51:56 10° NW 02:54:14 17° N 02:56:31 10° NE visible
14 May -2.1 04:28:35 10° NW 04:31:45 36° NNE 04:34:54 10° E visible
14 May -3.9 22:48:31 10° SW 22:51:50 63° SE 22:55:11 10° ENE visible
15 May -1.5 00:26:00 10° WNW 00:28:53 26° NNW 00:31:46 10° NE visible
15 May -0.7 02:04:20 10° NW 02:06:32 16° N 02:08:44 10° NE visible
15 May -1.5 03:41:14 10° NW 03:44:10 27° NNE 03:47:06 10° E visible
15 May -3.7 05:17:51 10° WNW 05:21:10 57° SW 05:24:29 10° SE visible
15 May -3.2 22:01:22 10° SSW 22:04:28 36° SE 22:07:35 10° ENE visible
15 May -2.0 23:38:11 10° W 23:41:17 34° NNW 23:44:24 10° NE visible
